Skip Page Navigation
NASA JPL Caltech
NASA Logo - Jet Propulsion Laboratory + View the NASA Portal
+ Center for Near-Earth Object Studies
JPL Home Earth Solar System Stars & Galaxies Technology
JPL Solar System Dynamics
BODIES ORBITS EPHEMERIDES TOOLS PHYSICAL DATA DISCOVERY FAQ SITE MAP
JPL Small-Body Database Browser
Search: [ help ]  
27743 (1990 VM)
Classification: Main-belt Asteroid          SPK-ID: 2027743
Ephemeris | Orbit Diagram | Orbital Elements | Mission Design | Physical Parameters | Discovery Circumstances | Close-Approach Data ]

[ hide orbit diagram ]

For accurate long-term ephemerides, please instead use our Horizons system.This orbit viewer was implemented using two-body methods, and hence should not be used for determining accurate long-term trajectories (over several years or decades) or planetary encounter circumstances.


[ revert to old Java-based viewer ]

Orbital Elements at Epoch 2459000.5 (2020-May-31.0) TDB
Reference: JPL 28 (heliocentric ecliptic J2000)
 Element Value Uncertainty (1-sigma)   Units 
e .1766338032569948 4.2362e-08  
a 3.157270697831136 1.5706e-08 au
q 2.599589966561356 1.3276e-07 au
i 8.707160906324308 3.8631e-06 deg
node 114.9171987205496 2.9437e-05 deg
peri 278.2720717628381 3.1617e-05 deg
M 94.81602803413664 1.0976e-05 deg
tp 2458460.808705405604
(2018-Dec-08.30870541)
6.2044e-05 TDB
period 2049.114164369264
5.61
1.529e-05
4.186e-08
d
yr
n .175685672501713 1.3109e-09 deg/d
Q 3.714951429100916 1.848e-08 au
  Orbit Determination Parameters
   # obs. used (total)      1933  
   data-arc span      10787 days (29.53 yr)  
   first obs. used      1990-10-16  
   last obs. used      2020-04-28  
   planetary ephem.      DE431  
   SB-pert. ephem.      SB431-N16  
   condition code      0  
   norm. resid. RMS      .50801  
   source      ORB  
   producer      Otto Matic  
   solution date      2020-May-20 06:22:20  

Additional Information
 Earth MOID = 1.62407 au 
 Jupiter MOID = 1.80428 au 
 T_jup = 3.164 
[ show covariance matrix ]

Ephemeris | Orbit Diagram | Orbital Elements | Mission Design | Physical Parameters | Discovery Circumstances | Close-Approach Data ]

Physical Parameter Table
Parameter Symbol Value Units Sigma Reference Notes
absolute magnitude H 12.9   n/a MPO337492  
diameter diameter 13.768 km 0.290 urn:nasa:pds:neowise_diameters_albedos::2.0[mainbelt] (http://adsabs.harvard.edu/abs/2011ApJ...741...68M)  
geometric albedo albedo 0.071   0.005 urn:nasa:pds:neowise_diameters_albedos::2.0[mainbelt] (http://adsabs.harvard.edu/abs/2011ApJ...741...68M)  

27743 (1990 VM)          Discovered 1990-Nov-08 by McNaught, R. H. at Siding Spring
Reference: 20010902/Numbers.arcLast Updated: 2004-04-19

[ show close-approach data ]
Alternate Designations
 1990 VM = 1998 FN13 
Ephemeris | Orbit Diagram | Orbital Elements | Mission Design | Physical Parameters | Discovery Circumstances | Close-Approach Data ]
ABOUT SSD CREDITS/AWARDS PRIVACY/COPYRIGHT GLOSSARY LINKS
FirstGov 2020-Jul-09 17:49 UT
(server date/time)  
NASA Home Page
Site Manager:   Ryan S. Park
Webmaster  Alan B. Chamberlin